Content
SEND FEEDBACK

Daily
Averages
Monthly
Summary
United States of America

CHAUTAUQUA, NEW YORK


Home > North America > United States > New York
Elevation: 1264 feet     Latitude: 42 17N     Longitude: 079 37W

WEATHER
 
SELECT A DAY
Number of Records: 202,581;   Date Range: 12/11/96 - 7/7/14
 
SHARE

PRINT THIS DATA

[ ← Previous Day ]
WEATHER ALMANAC - FEBRUARY 19, 2013
[ Next Day → ]
[ °C ]   °F
Weather ElementAverageHighLow
Temperature29.7 °F46 °F (1:53 am)23 °F (10:04 pm)
Dewpoint23.4 °F35.1 °F (5:53 am)15.1 °F (10:53 pm)
Humidity78.2 %93 % (10:57 am)44 % (1:53 am)
Barometer29.73 in29.83 in (9:53 pm)29.59 in (9:53 am)
Wind Speed19.9 mph29.9 mph (7:51 pm)
Wind Gust43.7 mph (10:53 am)
Weather ElementAverage
Visibility3.7 mi
Wind DirectionWSW (233.7 °)

Weather ElementTotal
Precipitation0.32 in
Heating Degree Days30.5 (Base 65)
Averaged from 54 records on February 19, 2013
WEATHER CONDITIONS BREAKOUT
WIND DIRECTION BREAKOUT
WEATHER BY HOUR - FEBRUARY 19, 2013
[ °C ]   °F
Local TimeTemperatureDewpointHumidityBarometerVisibilityWind DirectionWind SpeedGust SpeedPrecipitationEventsConditions
1:53 AM46.0 °F25.0 °F44 %29.78 in10.0 miSouth (190°)19.6 mph31.1 mphPartly Cloudy
2:53 AM46.0 °F25.0 °F44 %29.75 in10.0 miSouth (180°)16.1 mph26.5 mphOvercast
3:53 AM45.0 °F24.1 °F44 %29.73 in10.0 miSSW (200°)11.5 mph19.6 mphOvercast
4:53 AM44.1 °F26.1 °F49 %29.71 in10.0 miSouth (190°)10.4 mph0.00 inRainLight Rain
5:53 AM39.9 °F35.1 °F83 %29.66 in4.0 miSSE (160°)26.5 mph39.1 mph0.12 inRainRain
6:53 AM39.9 °F35.1 °F83 %29.63 in5.0 miSouth (180°)24.2 mph32.2 mph0.06 inRainRain
7:53 AM39.0 °F34.0 °F82 %29.62 in5.0 miSouth (170°)26.5 mph35.7 mph0.08 inRainLight Rain
8:53 AM39.9 °F35.1 °F83 %29.61 in7.0 miSouth (180°)18.4 mph31.1 mph0.01 inRainLight Rain
9:53 AM39.9 °F35.1 °F83 %29.59 in10.0 miSouth (180°)17.3 mph26.5 mph0.00 inRainLight Rain
10:53 AM36.0 °F33.1 °F89 %29.62 in5.0 miWSW (250°)17.3 mph43.7 mph0.00 inSnowLight Snow
10:57 AM35.6 °F33.8 °F93 %29.61 in3.0 miWSW (250°)15.0 mph36.8 mph0.01 inSnowLight Snow
11:03 AM33.8 °F32.0 °F93 %29.61 in1.8 miWSW (240°)18.4 mph26.5 mph0.01 inSnowLight Snow
11:14 AM33.8 °F30.2 °F87 %29.61 in0.8 miWSW (240°)16.1 mph26.5 mph0.01 inSnowLight Snow
11:53 AM33.1 °F30.9 °F92 %29.63 in1.0 miWSW (240°)15.0 mph23.0 mph0.02 inSnowLight Snow
12:07 PM33.8 °F30.2 °F87 %29.62 in0.8 miWSW (240°)17.3 mph27.6 mph0.00 inSnowLight Snow
1:02 PM30.2 °F28.4 °F93 %29.63 in1.2 miWSW (250°)23.0 mph34.5 mph0.00 inSnowLight Snow
1:14 PM30.2 °F26.6 °F86 %29.63 in2.0 miWSW (240°)18.4 mph29.9 mph0.00 inSnowLight Snow
1:22 PM30.2 °F26.6 °F86 %29.63 in7.0 miWSW (250°)19.6 mph29.9 mph0.00 inOvercast
2:53 PM28.9 °F23.0 °F78 %29.68 in10.0 miWSW (240°)24.2 mph41.4 mph0.00 inOvercast
3:53 PM30.0 °F21.9 °F72 %29.70 in10.0 miWSW (240°)16.1 mph36.8 mph0.00 inOvercast
4:03 PM30.2 °F23.0 °F75 %29.68 in10.0 miWSW (240°)20.7 mph32.2 mphOvercast
4:22 PM28.4 °F23.0 °F80 %29.69 in10.0 miWSW (240°)23.0 mph34.5 mph0.00 inSnowLight Snow
4:31 PM28.4 °F24.8 °F86 %29.69 in1.5 miWSW (240°)21.9 mph32.2 mph0.00 inSnowLight Snow
4:40 PM28.4 °F24.8 °F86 %29.70 in1.0 miWSW (240°)19.6 mph28.8 mph0.00 inSnowLight Snow
4:51 PM28.4 °F24.8 °F86 %29.70 in0.8 miSW (230°)17.3 mph29.9 mph0.00 inSnowLight Snow
4:53 PM28.0 °F24.1 °F85 %29.72 in1.0 miWSW (240°)15.0 mph25.3 mph0.00 inSnowLight Snow
4:56 PM28.4 °F24.8 °F86 %29.70 in1.2 miWSW (240°)17.3 mph28.8 mph0.00 inSnowLight Snow
5:13 PM28.4 °F24.8 °F86 %29.71 in0.8 miWSW (240°)19.6 mph28.8 mph0.00 inSnowLight Snow
5:53 PM27.0 °F23.0 °F85 %29.75 in0.8 miWest (260°)17.3 mph31.1 mph0.00 inSnowLight Snow
6:01 PM26.6 °F23.0 °F86 %29.74 in1.0 miWSW (250°)23.0 mph34.5 mph0.00 inSnowLight Snow
6:27 PM26.6 °F21.2 °F80 %29.75 in1.2 miWSW (240°)19.6 mph38.0 mph0.00 inSnowLight Snow
7:22 PM26.6 °F19.4 °F74 %29.78 in3.0 miWSW (250°)19.6 mph34.5 mph0.00 inSnowLight Snow
7:43 PM24.8 °F19.4 °F80 %29.78 in1.8 miWSW (240°)21.9 mph35.7 mph0.00 inSnowLight Snow
7:51 PM24.8 °F17.6 °F74 %29.79 in2.0 miWSW (240°)29.9 mph42.6 mph0.00 inSnowLight Snow
7:53 PM25.0 °F18.0 °F75 %29.81 in2.0 miWSW (240°)23.0 mph42.6 mph0.00 inSnowLight Snow
8:22 PM24.8 °F17.6 °F74 %29.79 in4.0 miWSW (240°)18.4 mph39.1 mph0.00 inSnowLight Snow
8:29 PM24.8 °F17.6 °F74 %29.79 in2.5 miWSW (250°)24.2 mph35.7 mph0.00 inSnowLight Snow
8:47 PM24.8 °F19.4 °F80 %29.79 in1.0 miWSW (240°)23.0 mph38.0 mph0.00 inSnowLight Snow
8:51 PM24.8 °F19.4 °F80 %29.79 in0.5 miWSW (250°)21.9 mph38.0 mph0.00 inFog-SnowSnow
8:53 PM24.1 °F21.0 °F88 %29.82 in0.5 miWSW (250°)16.1 mph38.0 mph0.00 inFog-SnowSnow
9:05 PM24.8 °F19.4 °F80 %29.80 in1.0 miWSW (250°)23.0 mph34.5 mph0.00 inSnowLight Snow
9:17 PM24.8 °F15.8 °F69 %29.80 in5.0 miWSW (250°)23.0 mph41.4 mph0.00 inSnowLight Snow
9:27 PM24.8 °F15.8 °F69 %29.80 in4.0 miWSW (240°)20.7 mph35.7 mph0.00 inSnowLight Snow
9:41 PM24.8 °F17.6 °F74 %29.81 in1.8 miWSW (240°)18.4 mph34.5 mph0.00 inSnowLight Snow
9:53 PM24.1 °F18.0 °F77 %29.83 in3.0 miWSW (250°)16.1 mph32.2 mph0.00 inSnowLight Snow
10:04 PM23.0 °F19.4 °F86 %29.80 in1.8 miWSW (240°)19.6 mph33.4 mph0.00 inSnowLight Snow
10:10 PM23.0 °F19.4 °F86 %29.81 in0.8 miWSW (250°)23.0 mph31.1 mph0.00 inSnowLight Snow
10:19 PM24.8 °F17.6 °F74 %29.81 in1.2 miWSW (240°)24.2 mph32.2 mph0.00 inSnowLight Snow
10:38 PM24.8 °F15.8 °F69 %29.81 in3.0 miWSW (250°)17.3 mph32.2 mph0.00 inSnowLight Snow
10:45 PM24.8 °F15.8 °F69 %29.81 in3.0 miWSW (240°)23.0 mph35.7 mph0.00 inSnowLight Snow
10:53 PM23.0 °F15.1 °F72 %29.83 in2.5 miWSW (250°)23.0 mph36.8 mph0.00 inSnowLight Snow
11:25 PM24.8 °F15.8 °F69 %29.81 in7.0 miWSW (250°)20.7 mph35.7 mph0.00 inOvercast
11:44 PM23.0 °F17.6 °F80 %29.81 in2.5 miWSW (250°)19.6 mph29.9 mph0.00 inSnowLight Snow
11:53 PM23.0 °F17.1 °F78 %29.83 in1.5 miWSW (250°)21.9 mph31.1 mph0.00 inSnowLight Snow
Hourly data recorded from KDKK, located miles away from Chautauqua, New York







STORIES FROM OUR PARTNERS